"Time","Temp","Dewpoint","Humidity","Pressure","Direction","Speed","Gust","Precip","PrecipRate"
"00:04:57","67.9","67.3","98","30.09","207","0","0","0.00","0.00"
"00:09:58","67.9","67.3","98","30.09","207","0","0","0.00","0.00"
"00:14:57","67.9","67.3","98","30.09","207","0","0","0.00","0.00"
"00:19:58","67.9","67.3","98","30.09","207","0","0","0.00","0.00"
"00:24:58","68","67.4","98","30.09","207","0","0","0.00","0.00"
"00:29:59","68","67.4","98","30.09","207","0","0","0.00","0.00"
"00:34:59","67.9","67.3","98","30.08","207","0","0","0.00","0.00"
"00:39:56","67.9","67.3","98","30.08","207","0","0","0.00","0.00"
"00:44:56","67.9","67.3","98","30.08","207","0","0","0.00","0.00"
"00:49:56","68","67.4","98","30.08","207","0","0","0.00","0.00"
"00:54:56","68","67.4","98","30.08","207","0","0","0.00","0.00"
"00:59:56","68","67.4","98","30.08","207","0","0","0.00","0.00"
"01:04:57","68","67.4","98","30.08","207","0","0","0.00","0.00"
"01:09:57","68","67.4","98","30.08","207","0","0","0.00","0.00"
"01:14:58","68","67.4","98","30.08","207","0","0","0.00","0.00"
"01:19:58","68","67.4","98","30.07","207","0","0","0.00","0.00"
"01:24:58","68","67.4","98","30.07","207","0","0","0.00","0.00"
"01:29:57","68","67.4","98","30.07","207","0","0","0.00","0.00"
"01:34:58","67.9","67.3","98","30.07","207","0","0","0.00","0.00"
"01:39:58","67.9","67.3","98","30.07","207","0","0","0.00","0.00"
"01:44:58","67.9","67.3","98","30.07","207","0","0","0.00","0.00"
"01:49:58","67.8","67.2","98","30.07","207","0","0","0.00","0.00"
"01:54:58","67.8","67.2","98","30.07","207","0","0","0.00","0.00"
"01:59:57","67.7","67.1","98","30.07","207","0","0","0.00","0.00"
"02:04:58","67.7","67.1","98","30.06","207","0","0","0.00","0.00"
"02:09:58","67.6","67","98","30.06","207","0","0","0.00","0.00"
"02:14:59","67.6","67","98","30.06","207","0","0","0.00","0.00"
"02:19:59","67.6","67","98","30.06","207","0","0","0.00","0.00"
"02:24:59","67.6","67","98","30.06","207","0","0","0.00","0.00"
"02:29:59","67.5","66.9","98","30.06","207","0","0","0.00","0.00"
"02:34:59","67.5","66.9","98","30.06","207","0","0","0.00","0.00"
"02:39:56","67.4","66.8","98","30.06","207","0","0","0.00","0.00"
"02:44:56","67.4","66.8","98","30.06","207","0","0","0.00","0.00"
"02:49:56","67.4","66.8","98","30.06","207","0","0","0.00","0.00"
"02:54:56","67.4","66.8","98","30.06","207","0","0","0.00","0.00"
"02:59:56","67.3","66.7","98","30.06","207","0","0","0.00","0.00"
"03:04:59","67.3","66.7","98","30.06","207","0","0","0.00","0.00"
"03:09:58","67.4","66.8","98","30.06","207","0","0","0.00","0.00"
"03:14:56","67.4","66.8","98","30.06","207","0","0","0.00","0.00"
"03:19:56","67.4","66.8","98","30.06","207","0","0","0.00","0.00"
"03:24:56","67.4","66.8","98","30.06","207","0","0","0.00","0.00"
"03:29:56","67.4","66.8","98","30.06","207","0","0","0.00","0.00"
"03:34:57","67.4","66.8","98","30.06","207","0","0","0.00","0.00"
"03:39:58","67.4","66.8","98","30.06","207","0","0","0.00","0.00"
"03:44:59","67.5","66.9","98","30.06","207","0","0","0.00","0.00"
"03:49:58","67.7","67.1","98","30.06","207","0.3","2.4","0.00","0.00"
"03:54:57","67.7","67.1","98","30.06","207","0","0","0.00","0.00"
"03:59:59","67.7","67.1","98","30.06","207","0","0","0.00","0.00"
"04:04:57","67.6","67","98","30.06","207","0","0","0.00","0.00"
"04:09:57","67.4","66.8","98","30.06","207","0","0","0.00","0.00"
"04:14:58","67.4","66.8","98","30.07","207","0","0","0.00","0.00"
"04:19:56","67.4","66.8","98","30.07","207","0","0","0.00","0.00"
"04:24:58","67.2","66.6","98","30.07","207","0","0","0.00","0.00"
"04:29:58","67.1","66.5","98","30.07","207","0","0","0.00","0.00"
"04:34:57","67.1","66.5","98","30.06","207","0","0","0.00","0.00"
"04:39:57","67.1","66.5","98","30.06","207","0","0","0.00","0.00"
"04:44:57","66.9","66.3","98","30.06","207","0","0","0.00","0.00"
"04:49:56","66.8","66.2","98","30.06","207","0","0","0.00","0.00"
"04:54:56","66.8","66.2","98","30.06","207","0","0","0.00","0.00"
"04:59:59","66.7","66.1","98","30.06","207","0","0","0.00","0.00"
"05:04:56","66.6","66","98","30.06","207","0","0","0.00","0.00"
"05:09:55","66.6","66","98","30.06","207","0","0","0.00","0.00"
"05:14:56","66.6","66","98","30.06","207","0","0","0.00","0.00"
"05:19:56","66.5","65.9","98","30.06","207","0","0","0.00","0.00"
"05:24:59","66.5","65.9","98","30.06","207","0","0","0.00","0.00"
"05:29:59","66.4","65.8","98","30.07","207","0","0","0.00","0.00"
"05:34:58","66.2","65.6","98","30.07","207","0","0","0.00","0.00"
"05:39:58","66.1","65.5","98","30.07","207","0","0","0.00","0.00"
"05:44:57","66.2","65.6","98","30.07","207","0","0","0.00","0.00"
"05:49:56","66.3","65.7","98","30.07","207","0","0","0.00","0.00"
"05:54:55","66.4","65.8","98","30.07","207","0","0","0.00","0.00"
"05:59:59","66.4","65.8","98","30.07","207","0","0","0.00","0.00"
"06:04:56","66.4","65.8","98","30.06","207","0","0","0.00","0.00"
"06:09:56","66.4","65.8","98","30.06","207","0","0","0.00","0.00"
"06:14:57","66.4","65.8","98","30.07","207","0","0","0.00","0.00"
"06:19:57","66.3","65.7","98","30.07","207","0","0","0.00","0.00"
"06:24:59","66.3","65.7","98","30.07","207","0","0","0.00","0.00"
"06:29:57","66.3","65.7","98","30.08","207","0","0","0.00","0.00"
"06:34:58","66.3","65.7","98","30.08","207","0","0","0.00","0.00"
"06:39:58","66.2","65.6","98","30.08","207","0","0","0.00","0.00"
"06:44:58","66.1","65.5","98","30.08","207","0","0","0.00","0.00"
"06:49:58","66.1","65.5","98","30.08","207","0","0","0.01","0.01"
"06:54:58","66.1","65.5","98","30.08","207","0","0","0.01","0.01"
"06:59:57","66.1","65.5","98","30.08","207","0","0","0.01","0.01"
"07:04:58","66.1","65.5","98","30.08","207","0","0","0.01","0.01"
"07:09:57","66.1","65.5","98","30.08","207","0","0","0.01","0.01"
"07:14:58","66.3","65.7","98","30.08","207","0","0","0.01","0.01"
"07:19:57","66.3","65.7","98","30.08","207","0","0","0.01","0.01"
"07:24:59","66.4","65.8","98","30.08","207","0","1.2","0.01","0.01"
"07:29:58","66.5","65.9","98","30.08","207","0.2","2.4","0.01","0.01"
"07:34:58","66.6","66","98","30.08","209","0","1.2","0.01","0.01"
"07:39:57","66.6","66","98.1","30.08","209","0","0","0.01","0.01"
"07:44:56","66.7","66.4","99","30.08","209","0","0","0.01","0.01"
"07:49:59","66.8","66.5","99","30.08","209","0","0","0.01","0.01"
"07:54:58","66.9","66.6","99","30.08","209","0","0","0.01","0.00"
"07:59:56","66.9","66.6","98.9","30.08","209","0","0","0.01","0.00"
"08:04:56","67","66.4","98","30.08","209","0","0","0.01","0.00"
"08:09:56","67.1","66.5","98","30.08","209","0","0","0.01","0.00"
"08:14:56","67.2","66.9","98.8","30.08","211","0","0","0.01","0.00"
"08:19:59","67.3","67","99","30.08","223","0","0","0.01","0.00"
"08:24:58","67.3","67","99","30.08","223","0","0","0.01","0.00"
"08:29:57","67.4","67.1","99","30.08","223","0","0","0.01","0.00"
"08:34:56","67.6","67.3","99","30.08","223","0","0","0.01","0.00"
"08:39:59","67.7","67.3","98.7","30.08","223","0","0","0.01","0.00"
"08:44:58","67.8","67.3","98.5","30.08","223","0","0","0.01","0.00"
"08:49:57","67.8","67.2","98","30.08","223","0","0","0.01","0.00"
"08:54:56","67.9","67.3","98.1","30.08","223","0","0","0.01","0.00"
"08:59:59","68","67.7","99","30.09","223","0","0","0.01","0.00"
"09:04:59","68","67.7","99","30.09","223","0","0","0.01","0.00"
"09:09:58","68.2","67.9","99","30.09","223","0","0","0.01","0.00"
"09:14:59","68.4","68.1","99","30.09","223","0","0","0.01","0.00"
"09:19:58","68.5","68","98.4","30.09","223","0","0","0.01","0.00"
"09:24:57","68.6","68.2","98.8","30.09","223","0","0","0.01","0.00"
"09:29:59","68.9","68.6","99","30.09","223","0","0","0.01","0.00"
"09:34:58","69.1","68.8","99","30.09","223","0","0","0.01","0.00"
"09:39:57","69.2","68.7","98.5","30.09","223","0","0","0.01","0.00"
"09:44:56","69.3","69","99","30.10","223","0","0","0.01","0.00"
"09:49:59","69.4","69.1","99","30.10","223","0","0","0.01","0.00"
"09:54:58","69.5","69.2","99","30.10","223","0","0","0.01","0.00"
"09:59:56","69.5","68.9","98.1","30.11","223","0","0","0.01","0.00"
"10:04:57","69.6","69","98","30.11","223","0","0","0.01","0.00"
"10:09:56","69.6","69","98","30.11","223","0","0","0.01","0.00"
"10:14:56","69.6","69","98","30.11","223","0","0","0.01","0.00"
"10:19:59","69.6","69","98","30.11","223","0","0","0.01","0.00"
"10:24:57","69.7","69.1","98","30.11","223","0","0","0.01","0.00"
"10:29:56","70.1","69.5","98","30.11","223","0","0","0.01","0.00"
"10:34:59","70.3","69.7","98","30.11","315","0","3.6","0.01","0.00"
"10:39:58","70.4","69.7","97.9","30.11","315","1.9","3.6","0.01","0.00"
"10:44:57","70.5","69.8","97.7","30.11","315","1.3","3.6","0.01","0.00"
"10:49:59","70.6","69.7","97","30.11","315","1.2","3.6","0.01","0.00"
"10:54:58","70.6","69.7","97","30.11","315","0.7","2.4","0.01","0.00"
"10:59:56","70.6","69.5","96.2","30.11","315","0.4","2.3","0.01","0.00"
"11:04:57","70.6","69.4","96","30.11","315","0.3","1.2","0.01","0.00"
"11:09:59","70.8","69.6","96.1","30.11","315","0.8","3.6","0.01","0.00"
"11:14:56","71","70","96.8","30.11","315","0.6","2.4","0.01","0.00"
"11:19:58","71","70.1","97","30.11","315","0.5","2.4","0.01","0.00"
"11:24:57","71","70.1","96.9","30.11","315","1.1","2.4","0.01","0.00"
"11:29:58","71","69.8","96","30.11","315","1.5","3.6","0.01","0.00"
"11:34:57","71","69.8","96","30.11","315","0.6","2.4","0.01","0.00"
"11:39:57","71.2","70","96","30.11","315","0","1.2","0.01","0.00"
"11:44:57","71.5","70.3","96","30.11","315","0","0","0.01","0.00"
"11:49:59","71.6","70.4","96","30.10","315","0.5","2.4","0.01","0.00"
"11:54:58","71.7","70.5","96","30.10","315","0.3","1.2","0.01","0.00"
"11:59:57","71.8","70.3","95","30.10","315","0.1","1.2","0.01","0.00"
"12:04:57","72.1","70.7","95.5","30.09","315","0.3","1.2","0.01","0.00"
"12:09:56","72.3","70.9","95.2","30.09","315","0.3","2.4","0.01","0.00"
"12:14:57","73.1","71.5","94.5","30.09","315","0.3","2.4","0.01","0.00"
"12:19:56","74","71.9","93.2","30.09","315","0.1","1.2","0.01","0.00"
"12:24:59","74.6","72","91.8","30.09","315","0.3","2.4","0.01","0.00"
"12:29:57","75.2","72.4","90.9","30.09","315","0.3","2.3","0.01","0.00"
"12:34:58","75.7","72.5","90","30.08","268","1","2.4","0.01","0.00"
"12:39:56","75.5","72","88.8","30.08","265","0.3","2.3","0.01","0.00"
"12:44:59","76.9","73","87.9","30.08","265","0.1","1.2","0.01","0.00"
"12:49:58","78.4","74","86.3","30.07","230","1.5","6","0.01","0.00"
"12:54:58","78.7","73.7","84.8","30.07","205","2.2","5.8","0.01","0.00"
"12:59:58","78.8","73.3","83.2","30.07","207","0.5","3.6","0.01","0.00"
"13:04:59","78.2","73","84","30.07","155","0","3.6","0.01","0.00"
"13:09:58","77.7","71.9","82.4","30.07","155","0.6","3.5","0.01","0.00"
"13:14:59","77.2","71.8","83.6","30.07","161","1.2","3.6","0.01","0.00"
"13:19:58","76.8","71.5","83.6","30.07","161","0.6","2.4","0.01","0.00"
"13:24:58","76.5","71.4","84.3","30.07","161","0.7","2.4","0.01","0.00"
"13:29:57","76.4","71.3","84.2","30.07","161","0.5","3.6","0.01","0.00"
"13:34:57","76.6","71.8","85","30.06","161","0.1","2.3","0.01","0.00"
"13:39:57","76.8","71.9","85.2","30.06","161","0.2","1.2","0.01","0.00"
"13:44:57","76.9","71.9","84.9","30.06","78","1.4","3.6","0.01","0.00"
"13:49:57","76.9","72.1","85.3","30.06","45","0.1","2.3","0.01","0.00"
"13:54:57","76.6","72.1","86.1","30.06","45","0.1","1.2","0.01","0.00"
"13:59:56","76.5","72.3","87","30.06","44","1.2","3.6","0.01","0.00"
"14:04:57","76.4","72.3","87.2","30.06","44","0.8","2.4","0.01","0.00"
"14:09:56","76.5","72.4","87.4","30.06","44","0.6","2.4","0.01","0.00"
"14:14:58","76.6","72.7","87.7","30.06","44","0.6","3.6","0.01","0.00"
"14:19:58","76.7","72.8","87.7","30.06","44","0","0","0.01","0.00"
"14:24:57","76.8","72.5","86.6","30.06","43","1","3.6","0.01","0.00"
"14:29:56","76.8","72.5","86.6","30.06","35","1.7","3.6","0.01","0.00"
"14:34:59","77","72.8","87","30.05","15","1.7","3.6","0.01","0.00"
"14:39:59","77.2","72.9","86.9","30.05","11","1.4","3.6","0.01","0.00"
"14:44:59","77.4","72.8","85.9","30.05","9","1.6","4.8","0.01","0.00"
"14:49:58","77.4","72.2","83.8","30.04","9","1.2","2.4","0.01","0.00"
"14:54:58","77.4","72.2","84.1","30.04","9","0.2","2.4","0.01","0.00"
"14:59:57","77.4","72.4","84.4","30.04","9","0.1","2.4","0.01","0.00"
"15:04:57","77.4","72.7","85.5","30.03","9","0","2.3","0.02","0.00"
"15:09:57","77.3","73","86.5","30.03","9","0.2","1.2","0.02","0.01"
"15:14:58","77.1","72.9","87.2","30.03","9","0","1.2","0.03","0.02"
"15:19:57","76.6","72.6","87.5","30.03","9","0.4","2.4","0.03","0.02"
"15:24:56","76.3","72.7","88.5","30.03","9","0.1","1.2","0.03","0.02"
"15:29:56","76.1","72.5","88.8","30.03","5","0.4","2.4","0.03","0.02"
"15:34:59","75.8","72.6","89.8","30.02","5","0","1.2","0.03","0.02"
"15:39:59","75.7","72.9","90.9","30.02","5","0.3","2.4","0.03","0.02"
"15:44:59","75.5","72.6","90.7","30.02","5","1","3.6","0.03","0.02"
"15:49:58","75.4","72.6","91","30.02","5","0","1.2","0.03","0.02"
"15:54:57","75.4","72.8","91.9","30.02","10","0.3","3.6","0.03","0.02"
"15:59:57","75.3","72.7","91.7","30.02","10","0.5","3.5","0.03","0.02"
"16:04:57","75.3","72.8","92","30.02","348","0.8","3.6","0.03","0.02"
"16:09:56","75.3","72.7","91.5","30.02","340","0.8","3.6","0.03","0.01"
"16:14:57","75.3","72.8","91.9","30.02","329","0.9","2.4","0.03","0.01"
"16:19:56","75.4","72.7","91.6","30.02","344","1.4","4.8","0.03","0.00"
"16:24:59","75.4","72.9","92","30.02","339","0.4","2.4","0.03","0.00"
"16:29:56","75.5","72.9","91.7","30.02","338","1.3","3.6","0.03","0.00"
"16:34:59","75.5","72.8","91.2","30.02","338","1.2","3.6","0.03","0.00"
"16:39:59","76.1","73.8","92.5","30.02","338","1.3","4.8","0.03","0.00"
"16:44:58","77.2","73.9","89.5","30.02","337","3.8","7.2","0.03","0.00"
"16:49:57","77.6","74.2","89.2","30.02","347","3.2","6","0.03","0.00"
"16:54:56","78","73.7","86.5","30.02","323","2.4","6","0.03","0.00"
"16:59:59","78.6","74","85.9","30.02","296","1.8","6","0.03","0.00"
"17:04:56","78.8","73.4","83.5","30.01","309","2.3","4.8","0.03","0.00"
"17:09:59","78.3","73.1","84","30.01","311","0.8","2.4","0.03","0.00"
"17:14:56","78.2","73.5","85.4","30.02","313","0.9","4.8","0.03","0.00"
"17:19:59","78.1","72.7","83.7","30.02","320","2","4.8","0.03","0.00"
"17:24:58","77.6","72.4","84.2","30.02","320","1.8","3.6","0.03","0.00"
"17:29:57","77.1","72.6","86.1","30.02","320","2","4.8","0.03","0.00"
"17:34:56","76.8","72.6","87","30.02","320","1.4","3.6","0.03","0.00"
"17:39:56","76.7","72.8","87.7","30.02","320","0.8","3.6","0.03","0.00"
"17:44:59","76.8","72.6","86.8","30.02","320","1.4","4.8","0.03","0.00"
"17:49:58","76.8","72.2","85.9","30.02","320","1","2.4","0.03","0.00"
"17:54:57","76.8","72","85.2","30.02","320","1.2","2.4","0.03","0.00"
"17:59:56","76.8","71.6","84","30.02","320","0.9","3.6","0.03","0.00"
"18:04:59","77.1","71.7","83.5","30.02","320","1.2","3.5","0.03","0.00"
"18:09:59","77.1","71.6","83.1","30.02","320","1.4","3.6","0.03","0.00"
"18:14:58","76.9","71.2","82.9","30.02","320","0.9","2.4","0.03","0.00"
"18:19:57","76.7","71.4","83.6","30.02","320","0","1.2","0.03","0.00"
"18:24:59","76.7","71.7","84.8","30.02","320","0","1.2","0.03","0.00"
"18:29:57","76.6","71.8","85.3","30.02","320","0.5","2.4","0.03","0.00"
"18:34:59","76.6","72.1","86","30.01","320","0.8","2.4","0.03","0.00"
"18:39:57","76.3","72","86.6","30.01","320","1.1","2.4","0.03","0.00"
"18:44:56","76.1","72.1","87.4","30.01","320","0.9","3.6","0.03","0.00"
"18:49:56","75.9","72.2","88.2","30.01","320","0.2","1.2","0.03","0.00"
"18:54:57","75.7","72.2","89","30.01","320","0.3","1.2","0.03","0.00"
"18:59:58","75.5","72.1","89.4","30.01","320","0.7","2.4","0.03","0.00"
"19:04:58","75.2","72.1","90","30.01","320","0","1.2","0.03","0.00"
"19:09:57","75","72.1","90.6","30.01","320","0.7","2.4","0.03","0.00"
"19:14:59","74.7","71.9","91","30.01","320","0.3","2.3","0.03","0.00"
"19:19:58","74.3","71.8","91.9","30.01","320","0","1.2","0.03","0.00"
"19:24:57","74","71.5","92","30.01","320","0","0","0.03","0.00"
"19:29:56","73.8","71.4","92.3","30.02","320","0","0","0.03","0.00"
"19:34:59","73.6","71.4","93","30.02","320","0","0","0.03","0.00"
"19:39:59","73.5","71.4","93","30.02","320","0","0","0.03","0.00"
"19:44:58","73.2","71.1","93","30.02","320","0","0","0.03","0.00"
"19:49:57","72.9","71","93.7","30.02","320","0","0","0.03","0.00"
"19:54:56","72.7","70.9","94","30.02","320","0","0","0.03","0.00"
"19:59:59","72.5","70.8","94.2","30.03","320","0","0","0.03","0.00"
"20:04:59","72.4","70.9","95","30.03","320","0","0","0.03","0.00"
"20:09:59","72.4","70.9","95","30.03","320","0","0","0.03","0.00"
"20:14:59","72.3","70.8","95","30.03","320","0","1.2","0.03","0.00"
"20:19:57","72.2","70.7","95","30.03","320","0","0","0.03","0.00"
"20:24:57","72","70.5","95","30.03","320","0","0","0.03","0.00"
"20:29:56","71.8","70.3","95","30.03","320","0","1.2","0.03","0.00"
"20:34:59","71.6","70.3","95.5","30.03","320","0","1.2","0.03","0.00"
"20:39:58","71.6","70.4","96","30.03","320","0.3","2.4","0.03","0.00"
"20:44:56","71.5","70.3","96","30.03","320","0.4","2.4","0.03","0.00"
"20:49:58","71.4","70.2","96","30.03","320","1.1","2.4","0.03","0.00"
"20:54:57","71.4","70.2","96","30.03","320","0.6","2.4","0.03","0.00"
"20:59:59","71.3","70.1","96","30.03","320","0","0","0.03","0.00"
"21:04:56","71.1","69.9","96","30.03","320","0","0","0.03","0.00"
"21:09:59","70.9","69.7","96","30.03","320","0","0","0.03","0.00"
"21:14:56","70.8","69.6","96","30.03","320","0","1.2","0.03","0.00"
"21:19:59","70.7","69.5","96","30.03","320","0","1.2","0.03","0.00"
"21:24:58","70.6","69.4","96.2","30.03","320","0","0","0.03","0.00"
"21:29:56","70.5","69.6","97","30.03","320","0","0","0.03","0.00"
"21:34:56","70.5","69.6","97","30.03","320","0","0","0.03","0.00"
"21:39:59","70.4","69.5","97","30.03","320","0","0","0.03","0.00"
"21:44:59","70.4","69.5","97","30.03","320","0","0","0.03","0.00"
"21:49:58","70.4","69.5","97","30.03","320","0","1.2","0.03","0.00"
"21:54:57","70.4","69.5","97","30.03","320","0","1.2","0.03","0.00"
"21:59:59","70.3","69.4","97","30.03","320","0.4","1.2","0.03","0.00"
"22:04:59","70.2","69.3","97","30.03","320","0","1.2","0.03","0.00"
"22:09:59","70","69.1","97","30.03","320","0","0","0.03","0.00"
"22:14:59","70.1","69.2","97","30.03","320","0.1","1.2","0.03","0.00"
"22:19:57","70.2","69.3","97","30.03","320","0.9","2.4","0.03","0.00"
"22:24:56","70.2","69.3","97","30.03","320","1","2.4","0.03","0.00"
"22:29:58","70.2","69.3","97","30.03","320","1.8","3.6","0.03","0.00"
"22:34:57","70.1","69.2","97","30.03","320","0.9","2.4","0.03","0.00"
"22:39:56","70.1","69.2","97","30.03","320","0","0","0.03","0.00"
"22:44:59","70.1","69.2","97","30.03","320","0","0","0.03","0.00"
"22:49:57","70.1","69.2","97","30.03","320","0","0","0.03","0.00"
"22:54:56","70.1","69.2","97","30.03","320","0","0","0.03","0.00"
"22:59:56","70.1","69.2","97","30.03","320","0","0","0.03","0.00"
"23:04:57","70","69.1","97","30.03","320","0","0","0.03","0.00"
"23:09:56","70","69.4","97.9","30.03","320","0","0","0.03","0.00"
"23:14:56","70.1","69.4","97.8","30.03","320","0","0","0.03","0.00"
"23:19:58","70.1","69.4","97.5","30.03","320","0","0","0.03","0.00"
"23:24:57","70.1","69.4","97.8","30.03","320","0","0","0.03","0.00"
"23:29:56","70.1","69.4","97.7","30.03","320","0","0","0.03","0.00"
"23:34:59","70","69.4","97.9","30.02","320","0","0","0.03","0.00"
"23:39:58","70","69.4","98","30.02","320","0","0","0.03","0.00"
"23:44:57","70","69.4","98","30.02","320","0","0","0.03","0.00"
"23:49:58","69.9","69.3","98","30.02","320","0","0","0.03","0.00"
